Haifa, Israel

2:34 PM IDT on June 27, 2017 (GMT +0300)
Haifa

Weather History for LLHA - October, 2013

Change the Weather History Date:

Thursday, October 31, 2013

  Actual Average Record
Temperature  
Mean Temperature 76 °F -  
Max Temperature 82 °F - - ()
Min Temperature 69 °F - - ()
Cooling Degree Days 10    
Growing Degree Days 26 (Base 50)    
Moisture  
Dew Point 48 °F    
Average Humidity 37    
Maximum Humidity 65    
Minimum Humidity 21    
Precipitation  
Precipitation 0.00 in - - ()
Sea Level Pressure  
Sea Level Pressure 29.94 in    
Wind  
Wind Speed 9 mph ()    
Max Wind Speed 23 mph    
Max Gust Speed 34 mph    
Visibility 6.2 miles    
Events Rain , Thunderstorm    
T = Trace of Precipitation, MM = Missing Value Source: Averaged Metar Reports

Daily Weather History Graph

Daily Weather History Graph

Search for Another Location

Airport or City:

Trip Planner

Search our weather history database for the weather conditions in past years. The results will help you decide how hot, cold, wet, or windy it might be!

Date:

Astronomy

Oct. 31, 2013 Rise Set
Actual Time 5:56 AM IST 4:49 PM IST
Civil Twilight 5:31 AM IST 5:15 PM IST
Nautical Twilight 5:02 AM IST 5:44 PM IST
Astronomical Twilight 4:33 AM IST 6:13 PM IST
Moon 2:35 AM IST (10/31) 2:47 PM IST (10/31)
Length of Visible Light 11h 43m
Length of Day
10h 53m
Waning Crescent, 12% of the Moon is Illuminated
Oct 31
Waning Crescent
Nov 3
New
Nov 10
First Quarter
Nov 17
Full
Nov 25
Last Quarter

Hourly Weather History & Observations

Time (IST) Temp. Heat Index Dew Point Humidity Pressure Visibility Wind Dir Wind Speed Gust Speed Precip Events Conditions
6:35 AM 69.8 °F - 42.8 °F 38% 29.95 in 6.2 mi East 5.8 mph - N/A   Partly Cloudy
6:50 AM 69.8 °F - 42.8 °F 38% 29.98 in 6.2 mi ESE 6.9 mph - N/A   Scattered Clouds
7:50 AM 73.4 °F - 41.0 °F 31% 29.98 in 6.2 mi SE 10.4 mph - N/A   Scattered Clouds
8:50 AM 77.0 °F - 42.8 °F 29% 29.98 in 6.2 mi SE 11.5 mph - N/A   Scattered Clouds
9:50 AM 80.6 °F - 41.0 °F 24% 29.95 in 6.2 mi ESE 12.7 mph - N/A   Scattered Clouds
10:50 AM 82.4 °F - 44.6 °F 26% 29.95 in 6.2 mi East 13.8 mph - N/A   Scattered Clouds
11:50 AM 82.4 °F - 48.2 °F 30% 29.92 in 6.2 mi ESE 15.0 mph - N/A   Scattered Clouds
12:35 PM 80.6 °F 81.5 °F 60.8 °F 51% 29.92 in 6.2 mi NNE 9.2 mph - N/A   Scattered Clouds
12:50 PM 80.6 °F 82.3 °F 64.4 °F 58% 29.92 in 6.2 mi NE 8.1 mph 20.7 mph N/A   Partly Cloudy
1:15 PM 77.0 °F - 64.4 °F 65% 29.92 in 6.2 mi NNW 13.8 mph - N/A   Scattered Clouds
1:25 PM 78.8 °F - 64.4 °F 61% 29.92 in 6.2 mi NNW 13.8 mph - N/A Rain , Thunderstorm Light Thunderstorms and Rain
1:35 PM 82.4 °F - 39.2 °F 21% 29.92 in 6.2 mi NNE 17.3 mph 32.2 mph N/A Rain , Thunderstorm Light Thunderstorms and Rain
1:50 PM 82.4 °F - 42.8 °F 25% 29.92 in 6.2 mi NE 23.0 mph 34.5 mph N/A   Mostly Cloudy
2:50 PM 78.8 °F - 41.0 °F 26% 29.92 in 6.2 mi NNE 5.8 mph - N/A Thunderstorm Mostly Cloudy
3:05 PM 80.6 °F - 46.4 °F 30% 29.92 in 6.2 mi East 11.5 mph 23.0 mph N/A Thunderstorm Mostly Cloudy
3:50 PM 77.0 °F - 48.2 °F 36% 29.92 in 6.2 mi ESE 10.4 mph - N/A   Partly Cloudy
4:50 PM 77.0 °F - 46.4 °F 34% 29.92 in 6.2 mi NW 4.6 mph - N/A   Partly Cloudy
5:50 PM 75.2 °F - 50.0 °F 41% 29.92 in 6.2 mi Variable 3.5 mph - N/A   Partly Cloudy
6:50 PM 75.2 °F - 46.4 °F 36% 29.95 in 6.2 mi Variable 3.5 mph - N/A   Scattered Clouds
7:50 PM 73.4 °F - 50.0 °F 44% 29.95 in 6.2 mi Variable 2.3 mph - N/A   Scattered Clouds